Tiempo cada hora Barra do Garças

Hoy, 22 Junio, Martes

Tiempo Temperatura Precipitaciones Viento Presión Humedad
00:00 +24°C° 0 mm 1 mps 731 mmHg 50%
01:00 +23°C° 0 mm 1 mps 730 mmHg 52%
02:00 +22°C° 0 mm 1 mps 730 mmHg 54%
03:00 +19°C° 0 mm 0 mps 730 mmHg 56%
04:00 +21°C° 0 mm 1 mps 730 mmHg 58%
05:00 +21°C° 0 mm 1 mps 730 mmHg 59%
06:00 +20°C° 0 mm 1 mps 730 mmHg 60%
07:00 +23°C° 0 mm 1 mps 731 mmHg 53%
08:00 +23°C° 0 mm 0 mps 732 mmHg 46%
09:00 +25°C° 0 mm 0 mps 732 mmHg 40%
10:00 +30°C° 0 mm 1 mps 732 mmHg 34%
11:00 +32°C° 0 mm 1 mps 732 mmHg 29%
12:00 +36°C° 0 mm 2 mps 732 mmHg 24%
13:00 +36°C° 0 mm 2 mps 731 mmHg 23%
14:00 +37°C° 0 mm 2 mps 730 mmHg 22%
15:00 +37°C° 0 mm 2 mps 729 mmHg 21%
16:00 +35°C° 0 mm 2 mps 729 mmHg 24%
17:00 +32°C° 0 mm 1 mps 729 mmHg 27%
18:00 +30°C° 0 mm 1 mps 729 mmHg 30%
19:00 +29°C° 0 mm 1 mps 729 mmHg 32%
20:00 +28°C° 0 mm 1 mps 729 mmHg 34%
21:00 +24°C° 0 mm 0 mps 730 mmHg 35%
22:00 +24°C° 0 mm 0 mps 730 mmHg 37%
23:00 +25°C° 0 mm 1 mps 730 mmHg 39%

Mañana, 23 Junio, Miércoles

Tiempo Temperatura Precipitaciones Viento Presión Humedad
00:00 +24°C° 0 mm 1 mps 730 mmHg 41%
01:00 +23°C° 0 mm 1 mps 729 mmHg 43%
02:00 +23°C° 0 mm 1 mps 729 mmHg 45%
03:00 +20°C° 0 mm 0 mps 729 mmHg 46%
04:00 +21°C° 0 mm 1 mps 729 mmHg 47%
05:00 +21°C° 0 mm 1 mps 729 mmHg 49%
06:00 +21°C° 0 mm 1 mps 729 mmHg 50%
07:00 +23°C° 0 mm 1 mps 730 mmHg 44%
08:00 +25°C° 0 mm 1 mps 731 mmHg 39%
09:00 +28°C° 0 mm 1 mps 731 mmHg 34%
10:00 +30°C° 0 mm 2 mps 731 mmHg 30%
11:00 +34°C° 0 mm 2 mps 731 mmHg 25%
12:00 +36°C° 0 mm 3 mps 731 mmHg 20%
13:00 +37°C° 0 mm 3 mps 730 mmHg 19%
14:00 +37°C° 0 mm 2 mps 729 mmHg 18%
15:00 +38°C° 0 mm 2 mps 728 mmHg 17%
16:00 +36°C° 0 mm 2 mps 728 mmHg 20%
17:00 +32°C° 0 mm 1 mps 728 mmHg 22%
18:00 +30°C° 0 mm 1 mps 728 mmHg 25%
19:00 +29°C° 0 mm 1 mps 728 mmHg 27%
20:00 +28°C° 0 mm 1 mps 728 mmHg 28%
21:00 +26°C° 0 mm 1 mps 729 mmHg 30%
22:00 +26°C° 0 mm 1 mps 729 mmHg 31%
23:00 +25°C° 0 mm 1 mps 729 mmHg 33%

Pasado mañana, 24 Junio, Jueves

Tiempo Temperatura Precipitaciones Viento Presión Humedad
00:00 +24°C° 0 mm 1 mps 729 mmHg 34%
01:00 +23°C° 0 mm 1 mps 728 mmHg 36%
02:00 +23°C° 0 mm 1 mps 728 mmHg 38%
03:00 +20°C° 0 mm 0 mps 728 mmHg 39%
04:00 +19°C° 0 mm 0 mps 728 mmHg 41%
05:00 +19°C° 0 mm 0 mps 728 mmHg 42%
06:00 +18°C° 0 mm 0 mps 729 mmHg 43%
07:00 +23°C° 0 mm 1 mps 729 mmHg 39%
08:00 +25°C° 0 mm 1 mps 730 mmHg 34%
09:00 +27°C° 0 mm 2 mps 730 mmHg 30%
10:00 +30°C° 0 mm 2 mps 730 mmHg 26%
11:00 +34°C° 0 mm 3 mps 730 mmHg 23%
12:00 +36°C° 0 mm 3 mps 730 mmHg 19%
13:00 +37°C° 0 mm 3 mps 729 mmHg 19%
14:00 +38°C° 0 mm 3 mps 728 mmHg 18%
15:00 +38°C° 0 mm 3 mps 728 mmHg 17%
16:00 +36°C° 0 mm 3 mps 727 mmHg 20%
17:00 +34°C° 0 mm 2 mps 727 mmHg 23%
18:00 +31°C° 0 mm 1 mps 727 mmHg 26%
19:00 +29°C° 0 mm 1 mps 728 mmHg 29%
20:00 +28°C° 0 mm 1 mps 728 mmHg 31%
21:00 +26°C° 0 mm 1 mps 729 mmHg 34%
22:00 +25°C° 0 mm 1 mps 729 mmHg 35%
23:00 +25°C° 0 mm 1 mps 729 mmHg 37%

25 Junio, Viernes

Tiempo Temperatura Precipitaciones Viento Presión Humedad
00:00 +24°C° 0 mm 1 mps 729 mmHg 38%
01:00 +23°C° 0 mm 1 mps 728 mmHg 40%
02:00 +20°C° 0 mm 0 mps 728 mmHg 42%
03:00 +20°C° 0 mm 0 mps 728 mmHg 44%
04:00 +20°C° 0 mm 0 mps 728 mmHg 44%
05:00 +19°C° 0 mm 0 mps 728 mmHg 45%
06:00 +19°C° 0 mm 0 mps 728 mmHg 45%
07:00 +23°C° 0 mm 1 mps 729 mmHg 42%
08:00 +25°C° 0 mm 1 mps 730 mmHg 38%
09:00 +27°C° 0 mm 1 mps 730 mmHg 34%
10:00 +30°C° 0 mm 2 mps 730 mmHg 31%
11:00 +34°C° 0 mm 2 mps 730 mmHg 27%
12:00 +36°C° 0 mm 2 mps 730 mmHg 23%
13:00 +37°C° 0 mm 2 mps 729 mmHg 21%
14:00 +38°C° 0 mm 2 mps 728 mmHg 19%
15:00 +38°C° 0 mm 2 mps 728 mmHg 17%
16:00 +36°C° 0 mm 2 mps 727 mmHg 20%
17:00 +34°C° 0 mm 2 mps 727 mmHg 23%
18:00 +31°C° 0 mm 1 mps 727 mmHg 25%
19:00 +29°C° 0 mm 1 mps 727 mmHg 27%
20:00 +28°C° 0 mm 1 mps 728 mmHg 29%
21:00 +25°C° 0 mm 0 mps 728 mmHg 30%
22:00 +24°C° 0 mm 0 mps 728 mmHg 31%
23:00 +24°C° 0 mm 0 mps 728 mmHg 33%

26 Junio, Sábado

Tiempo Temperatura Precipitaciones Viento Presión Humedad
00:00 +23°C° 0 mm 0 mps 728 mmHg 34%
01:00 +22°C° 0 mm 0 mps 728 mmHg 35%
02:00 +22°C° 0 mm 0 mps 728 mmHg 36%
03:00 +21°C° 0 mm 0 mps 728 mmHg 37%
04:00 +24°C° 0 mm 1 mps 728 mmHg 37%
05:00 +24°C° 0 mm 1 mps 728 mmHg 36%
06:00 +24°C° 0 mm 1 mps 729 mmHg 36%
07:00 +26°C° 0 mm 1 mps 729 mmHg 34%
08:00 +27°C° 0 mm 2 mps 730 mmHg 32%
09:00 +29°C° 0 mm 2 mps 731 mmHg 30%
10:00 +31°C° 0 mm 3 mps 730 mmHg 26%
11:00 +34°C° 0 mm 3 mps 730 mmHg 23%
12:00 +37°C° 0 mm 3 mps 730 mmHg 19%
13:00 +37°C° 0 mm 3 mps 729 mmHg 18%
14:00 +38°C° 0 mm 3 mps 728 mmHg 18%
15:00 +38°C° 0 mm 2 mps 728 mmHg 17%
16:00 +36°C° 0 mm 2 mps 727 mmHg 19%
17:00 +34°C° 0 mm 2 mps 727 mmHg 22%
18:00 +31°C° 0 mm 1 mps 727 mmHg 25%
19:00 +29°C° 0 mm 1 mps 727 mmHg 26%
20:00 +28°C° 0 mm 1 mps 728 mmHg 27%
21:00 +27°C° 0 mm 1 mps 728 mmHg 29%
22:00 +26°C° 0 mm 1 mps 728 mmHg 30%
23:00 +25°C° 0 mm 1 mps 728 mmHg 31%

27 Junio, Domingo

Tiempo Temperatura Precipitaciones Viento Presión Humedad
00:00 +24°C° 0 mm 1 mps 728 mmHg 32%
01:00 +23°C° 0 mm 1 mps 728 mmHg 34%
02:00 +22°C° 0 mm 1 mps 728 mmHg 36%
03:00 +21°C° 0 mm 1 mps 728 mmHg 38%
04:00 +21°C° 0 mm 1 mps 728 mmHg 38%
05:00 +20°C° 0 mm 1 mps 728 mmHg 39%
06:00 +20°C° 0 mm 1 mps 728 mmHg 39%
07:00 +22°C° 0 mm 1 mps 729 mmHg 35%
08:00 +24°C° 0 mm 1 mps 730 mmHg 30%
09:00 +26°C° 0 mm 2 mps 731 mmHg 26%
10:00 +29°C° 0 mm 2 mps 731 mmHg 23%
11:00 +33°C° 0 mm 3 mps 730 mmHg 19%
12:00 +36°C° 0 mm 3 mps 730 mmHg 16%
13:00 +37°C° 0 mm 2 mps 730 mmHg 16%
14:00 +37°C° 0 mm 2 mps 729 mmHg 15%
15:00 +38°C° 0 mm 2 mps 728 mmHg 15%
16:00 +35°C° 0 mm 1 mps 728 mmHg 17%
17:00 +33°C° 0 mm 1 mps 728 mmHg 20%
18:00 +30°C° 0 mm 1 mps 728 mmHg 22%
19:00 +29°C° 0 mm 1 mps 728 mmHg 24%
20:00 +27°C° 0 mm 1 mps 728 mmHg 26%
21:00 +26°C° 0 mm 1 mps 729 mmHg 28%
22:00 +25°C° 0 mm 1 mps 729 mmHg 30%
23:00 +24°C° 0 mm 1 mps 729 mmHg 31%
Mostrar más

Necesitamos Su Consentimiento

Meteoprog y nuestros Proveedores de Servicios pueden almacenar y acceder a sus datos personales como cookies, identificadores de dispositivo u otras tecnologías similares de su dispositivo y procesar dichos datos para personalizar contenido y anuncios, además de ofrecer funciones de redes sociales y analizar el tráfico.

  • Almacenar y/o acceder a información en su dispositivo

    Se puede almacenar o acceder a cookies, identificadores de dispositivo u otra información de su dispositivo para los fines anteriormente indicados.

  • Anuncios y contenido personalizados, medición de anuncios y contenido, percepciones del público, y desarrollo de productos

    Los anuncios y el contenido pueden personalizarse en base a su perfil. Se pueden añadir más datos para personalizar mejor los anuncios y contenidos. Se puede medir el rendimiento de los anuncios y contenidos. Se puede obtener la percepción sobre el público que ha visto los anuncios y contenidos. Dichos datos pueden usarse para desarrollar o mejorar la experiencia del usuario, sistemas y software.

Al hacer clic en ‘Estoy De Acuerdo’ usted permitirá el uso de las cookies, identificadores de dispositivo, balizas web u otras tecnologías similares indicadas. Su configuración puede cambiarse desde el navegador de su dispositivo.

Para ciertos fines, los intereses legítimos pueden ser considerados por encima del consentimiento. Puede leer más sobre ello en nuestra Política de Privacidad y Cookies.